TITAN 3C TRANSTAGE DEB, 3978

Orbit data source: Space-Track

TITAN 3C TRANSTAGE DEB, 3978 is space debris in LEO originally from a launch on Fri, 15 Oct 1965 UTC launched from the Air Force Eastern Test Range (AFETR). Debris objects in space refer to the collection of defunct objects orbiting the Earth. Examples of debris include non-operational satellites, rocket bodies, and fragments generated from explosions, collisions, or faulty payload assembly.

Loading next visibility...
Identifier
3978, 1965-082SE
Orbit
LEO
Country
Flag of USUS
Related business
Manufacturer
Unknown
Mission
Spacecraft
Bus & Motor
Unknown
Mass
Unknown
Launch date (UTC)
1965-10-15 (60 years ago)
Launch vehicle
Unknown
Launch site
Air Force Eastern Test Range (AFETR)
Object type
Payload
Rocket body
Debris
Shape & HBR
Unknown shape, 0.1 m
Radar Cross Section
Small (<0.1 m²)

Expand to show TLE details & history
Last TLE update: 5 hours ago

TLE from 5 hours ago
0 TITAN 3C TRANSTAGE DEB
1  3978U 65082SE  26034.17611120  .00000979  00000-0  15297-3 0  9994
2  3978  32.5655 350.3986 0034183 198.9457 160.9927 14.70239780427177
Epoch: 2026-02-03T04:13Z
TLE epoch observation values (Epoch: 2026-02-03T04:13:36.007Z)
Latitude
-0.00002°
Longitude
153.63774°
Altitude
681.741 km
Speed
7.506 km/s
True Right ascension
23h 21m 35s
True Declination
0° 00' 00"
Sunlit
Object was in daylight at epoch
Visualization orbit readout
Latitude
Unknown
Longitude
Unknown
Altitude
Unknown
Speed
Unknown
Apparent Right ascension
Unknown
Apparent Declination
Unknown
Sunlit
N/A
Visualization observer readout
Local Sidereal Time
11:15:08
Azimuth
Unknown
Elevation
Unknown
Doppler factor
Unknown
Orbital elements
Apogee altitude
687.918 km
Perigee altitude
639.775 km
Semi-major axis
7,041.983 km
Eccentricity
0.00342
Inclination
32.5655°
RAAN
350.3986°
Arg. of periapsis
198.9457°
True anomaly
161.11976°
Mean anomaly
160.9927°
Eccentric anomaly
161.05628°
Mean motion
3.67283 °/min
Orbital period
98.02 mins
BSTAR
0.00015297

Documentation

Showing up to 5 results
|